COSMOS 1275 DEB, 14739

Orbit data source: Space-Track

COSMOS 1275 DEB, 14739 is space debris in LEO originally from a launch on Thu, 04 Jun 1981 UTC launched from the Plesetsk Missile And Space Complex (PKMTR). Debris objects in space refer to the collection of defunct objects orbiting the Earth. Examples of debris include non-operational satellites, rocket bodies, and fragments generated from explosions, collisions, or faulty payload assembly.

Loading next visibility...
Identifier
14739, 1981-053JU
Orbit
LEO
Country
Flag of CISCIS
Related business
Manufacturer
Unknown
Mission
Spacecraft
Bus & Motor
Unknown
Mass
Unknown
Launch date (UTC)
1981-06-04 (45 years ago)
Launch vehicle
Unknown
Launch site
Plesetsk Missile And Space Complex (PKMTR)
Object type
Payload
Rocket body
Debris
Shape & HBR
Unknown shape, 0.1 m
Radar Cross Section
Small (<0.1 m²)

Expand to show TLE details & history
Last TLE update: 20 hours ago

TLE from 20 hours ago
0 COSMOS 1275 DEB
1 14739U 81053JU  26094.15324841  .00003085  00000-0  19435-2 0  9990
2 14739  83.0038 259.0097 0055353  61.3518 299.3205 14.03208027251572
Epoch: 2026-04-04T03:40Z
TLE epoch observation values (Epoch: 2026-04-04T03:40:40.662Z)
Latitude
0.00001°
Longitude
11.36316°
Altitude
866.133 km
Speed
7.429 km/s
True Right ascension
17h 16m 02s
True Declination
0° 00' 00"
Sunlit
Object was in daylight at epoch
Visualization orbit readout
Latitude
Unknown
Longitude
Unknown
Altitude
Unknown
Speed
Unknown
Apparent Right ascension
Unknown
Apparent Declination
Unknown
Sunlit
N/A
Visualization observer readout
Local Sidereal Time
05:15:14
Azimuth
Unknown
Elevation
Unknown
Doppler factor
Unknown
Orbital elements
Apogee altitude
919.99 km
Perigee altitude
839.64 km
Semi-major axis
7,257.952 km
Eccentricity
0.00554
Inclination
83.0038°
RAAN
259.0097°
Arg. of periapsis
61.3518°
True anomaly
298.76559°
Mean anomaly
299.3205°
Eccentric anomaly
299.04323°
Mean motion
3.51012 °/min
Orbital period
102.56 mins
BSTAR
0.0019435
Loading maneuver chart data...
Computing Atmospheric mass density...
Loading historical data...
Loading historical data...
Loading historical data...
Loading historical data...
Loading historical data...
Loading historical data...
Loading historical data...

Documentation

Showing up to 5 results
|